Header for Extended Forecast Station List Page

Search by: ID | Name | Date | Parm | Value | Avg | % Avg
Sort by: ID | Name | Date | Parm | Value | Avg | % Avg

Enter search or view all records.

Click on id for station plot
#IDNameDateParmValueAvg% Avg
0HWRI1BIG LOST-AT HOWELL RANCH NEAR CHILLY07-27-2015DISCHARGE (KAF)173646
1MACI1BIG LOST-MACKAY RESERVOIR NEAR MACKAY07-27-2015INFLOW (KAF)242499
2HALI1BIG WOOD-AT HAILEY07-27-2015DISCHARGE (KAF)335461
3MAGI1BIG WOOD-MAGIC DAM07-27-2015INFLOW (KAF)62822
4BITM8BITTERROOT-NEAR MISSOULA07-27-2015DISCHARGE (KAF)15622669
5BONM8BLACKFOOT-NEAR BONNER07-27-2015DISCHARGE (KAF)10117259
6BIGI1BOISE-AT GLENWOOD BRIDGE07-27-2015DISCHARGE (KAF)139133105
7LUCI1BOISE-LUCKY PEAK DAM07-27-2015INFLOW (KAF)267MM
8PARI1BOISE-NEAR PARMA07-27-2015DISCHARGE (KAF)20122091
9HOTI1BRUNEAU-NEAR HOT SPRINGS07-27-2015DISCHARGE (KAF)102245
10BULO3BULLY CREEK-BULLY CREEK DAM07-27-2015INFLOW (KAF)0058
11BUDW1BUMPING-BUMPING LAKE DAM07-27-2015INFLOW (KAF)152268
12CHDW1CHELAN-LAKE CHELAN DAM07-27-2015INFLOW (KAF)9622742
13ABOM8CLARK FORK-ABOVE MISSOULA07-27-2015DISCHARGE (KAF)28438175
14DLGM8CLARK FORK-AT DEER LODGE07-27-2015DISCHARGE (KAF)4947104
15SRGM8CLARK FORK-AT ST REGIS07-27-2015DISCHARGE (KAF)53480367
16BELM8CLARK FORK-BELOW MISSOULA07-27-2015DISCHARGE (KAF)44561373
17CABI1CLARK FORK-CABINET GORGE DAM07-27-2015INFLOW (KAF)1970308964
18NOXM8CLARK FORK-NOXON RAPIDS DAM07-27-2015INFLOW (KAF)1788292261
19DRMM8CLARK FORK-NR DRUMMOND07-27-2015DISCHARGE (KAF)130MM
20CLUW1CLE ELUM-CLE ELUM LAKE07-27-2015INFLOW (KAF)497565
21ORFI1CLEARWATER-AT OROFINO07-27-2015DISCHARGE (KAF)32850166
22SPDI1CLEARWATER-AT SPALDING07-27-2015DISCHARGE (KAF)12801037123
23COEI1COEUR D ALENE-COEUR D ALENE LAKE07-27-2015INFLOW (KAF)12324051
24CIBW1COLUMBIA-AT INTL BOUNDARY07-27-2015DISCHARGE (KAF)18806MM
25BONO3COLUMBIA-BONNEVILLE DAM07-27-2015INFLOW (KAF)26451MM
26CHJW1COLUMBIA-CHIEF JOSEPH DAM07-27-2015INFLOW (KAF)190352005995
27GCDW1COLUMBIA-GRAND COULEE DAM07-27-2015INFLOW (KAF)193542029895
28JDAO3COLUMBIA-JOHN DAY DAM07-27-2015INFLOW (KAF)254652823390
29MCDW1COLUMBIA-MCNARY DAM07-27-2015INFLOW (KAF)252372778291
30PRWW1COLUMBIA-PRIEST RAPIDS DAM07-27-2015INFLOW (KAF)198192108594
31RRHW1COLUMBIA-ROCKY REACH DAM07-27-2015INFLOW (KAF)195752080294
32TDAO3COLUMBIA-THE DALLES DAM07-27-2015INFLOW (KAF)260822895890
33WANW1COLUMBIA-WANAPUM DAM07-27-2015INFLOW (KAF)198152066396
34WELW1COLUMBIA-WELLS DAM07-27-2015INFLOW (KAF)193172030795
35DEDI1DEADWOOD-NEAR LOWMAN07-27-2015INFLOW (KAF)151976
36MODO3DESCHUTES-AT MOODY NR BIGGS07-27-2015DISCHARGE (KAF)1081111097
37ARDW1ENTIAT-NEAR ARDENVOIR07-27-2015DISCHARGE (KAF)193161
38CHEI1FALL RIVER-NEAR CHESTER07-27-2015DISCHARGE (KAF)738290
39CFMM8FLATHEAD-AT COLUMBIA FALLS07-27-2015DISCHARGE (KAF)867118073
40KERM8FLATHEAD-KERR DAM07-27-2015INFLOW (KAF)891140563
41TRYO3GRANDE RONDE-TROY07-27-2015DISCHARGE (KAF)8120041
42REXI1HENRYS FORK-AT REXBURG07-27-2015DISCHARGE (KAF)27138171
43ANTI1HENRYS FORK-AT ST. ANTHONY07-27-2015DISCHARGE (KAF)20532064
44IPDI1HENRYS FORK-ISLAND PARK DAM07-27-2015INFLOW (KAF)10614275
45HODO3HOOD-NEAR TUCKER BRIDGE07-27-2015DISCHARGE (KAF)8510283
46SERO3JOHN DAY-AT SERVICE CK07-27-2015DISCHARGE (KAF)306348
47KADW1KACHESS-KACHESS DAM07-27-2015INFLOW (KAF)2019108
48LAUW1KETTLE-AT LAURIER07-27-2015DISCHARGE (KAF)8214756
49PITW1KLICKITAT-NEAR PITT07-27-2015DISCHARGE (KAF)15719082
50BFEI1KOOTENAI-AT BONNERS FERRY07-27-2015STAGE (FT)MMM
51LEOI1KOOTENAI-AT LEONIA07-27-2015DISCHARGE (KAF)1477215968
52LYDM8KOOTENAI-LIBBY DAM07-27-2015INFLOW (KAF)942163758
53LWRI1LITTLE WOOD-LITTLE WOOD DAM07-27-2015INFLOW (KAF)71550
54BERO3MALHEUR-AGENCY VALLEY DAM07-27-2015INFLOW (KAF)6881
55VALO3MALHEUR-NEAR VALE07-27-2015DISCHARGE (KAF)32610
56WRMO3MALHEUR-WARM SPRINGS DAM07-27-2015INFLOW (KAF)65126
57MYKO3MCKAY CREEK-NEAR PILOT ROCK07-27-2015DISCHARGE (KAF)1177
58PATW1METHOW-NEAR PATEROS07-27-2015DISCHARGE (KAF)8512369
59WGCM8MF FLATHEAD-NEAR WEST GLACIER07-27-2015DISCHARGE (KAF)12824452
60CLFW1NACHES-NEAR CLIFFDEL07-27-2015DISCHARGE (KAF)568268
61NACW1NACHES-NEAR NACHES07-27-2015DISCHARGE (KAF)129111116
62DWRI1NF CLEARWATER-DWORSHAK DAM07-27-2015INFLOW (KAF)22836962
63FCFM8NF FLATHEAD-NEAR COLUMBIA FALLS07-27-2015DISCHARGE (KAF)17029657
64MONO3NF JOHN DAY-AT MONUMENT07-27-2015DISCHARGE (KAF)203657
65CSDI1NF PAYETTE-CASCADE DAM07-27-2015INFLOW (KAF)7669111
66TONW1OKANOGAN-NEAR TONASKET07-27-2015DISCHARGE (KAF)19530065
67OWYO3OWYHEE-BELOW OWYHEE DAM07-27-2015INFLOW (KAF)115222
68EMMI1PAYETTE-NEAR EMMETT07-27-2015DISCHARGE (KAF)25239763
69ALFW1PEND OREILLE-ALBENI FALLS DAM07-27-2015INFLOW (KAF)2081338961
70HOPI1PEND OREILLE-PEND OREILLE LAKE NR HOPE07-27-2015LAKE ELEVATION (FT)MMM
71PIHI1PORTNEUF-AT POCATELLO07-27-2015DISCHARGE (KAF)173352
72PRTI1PRIEST-NEAR PRIEST RIVER07-27-2015DISCHARGE (KAF)11716869
73RCCM8ROCK CREEK-NEAR CLINTON07-27-2015DISCHARGE (KAF)546583
74WHBI1SALMON-AT WHITEBIRD07-27-2015DISCHARGE (KAF)859120871
75ARAI1SF BOISE-ANDERSON RANCH DAM07-27-2015INFLOW (KAF)627088
76HHWM8SF FLATHEAD-HUNGRY HORSE DAM07-27-2015INFLOW (KAF)15424563
77PLDI1SF SNAKE-PALISADES DAM07-27-2015INFLOW (KAF)880120373
78SIFI1SNAKE-AB EAGLE ROCK NR IDAHO FALLS07-27-2015DISCHARGE (KAF)942112584
79AFRI1SNAKE-AMERICAN FALLS RESERVOIR07-27-2015INFLOW (KAF)1102124489
80SNAI1SNAKE-AT BLACKFOOT07-27-2015DISCHARGE (KAF)49557985
81MILI1SNAKE-AT MILNER07-27-2015DISCHARGE (KAF)5016730
82WEII1SNAKE-AT WEISER07-27-2015DISCHARGE (KAF)2473310080
83SWAI1SNAKE-BELOW SWAN FALLS07-27-2015DISCHARGE (KAF)1730212381
84BRNI1SNAKE-BROWNLEE DAM07-27-2015INFLOW (KAF)2580315682
85IHDW1SNAKE-ICE HARBOR DAM07-27-2015INFLOW (KAF)4768576083
86JLKW4SNAKE-JACKSON LAKE AT DAM07-27-2015INFLOW (KAF)11015173
87LGSW1SNAKE-LITTLE GOOSE DAM07-27-2015INFLOW (KAF)4772584682
88LGDW1SNAKE-LOWER GRANITE DAM07-27-2015INFLOW (KAF)4772581282
89LMNW1SNAKE-LOWER MONUMENTAL DAM07-27-2015INFLOW (KAF)4777585582
90ALPW4SNAKE-NEAR ALPINE07-27-2015DISCHARGE (KAF)61786671
91ANAW1SNAKE-NEAR ANATONE07-27-2015DISCHARGE (KAF)3492469674
92BFTI1SNAKE-NEAR BLACKFOOT07-27-2015DISCHARGE (KAF)50258586
93HEII1SNAKE-NEAR HEISE07-27-2015DISCHARGE (KAF)1324147890
94JKSW4SNAKE-NEAR JACKSON07-27-2015DISCHARGE (KAF)55272476
95SHYI1SNAKE-NEAR SHELLEY07-27-2015DISCHARGE (KAF)84790494
96LLKW1SPOKANE-AT LONGLAKE07-27-2015INFLOW (KAF)43061870
97SPOW1SPOKANE-AT SPOKANE07-27-2015DISCHARGE (KAF)283MM
98SJMI1ST JOE-AT ST MARIES07-27-2015STAGE (FT)MMM
99SATI1ST MARIES-NEAR SANTA07-27-2015DISCHARGE (KAF)81744
100STRM8ST. REGIS-NEAR ST. REGIS07-27-2015DISCHARGE (KAF)213069
101TNAW1TEANAWAY-BELOW FORKS07-27-2015DISCHARGE (KAF)81077
102TEAI1TETON-NEAR ST. ANTHONY07-27-2015DISCHARGE (KAF)13915888
103RILW1TIETON-RIMROCK LAKE NEAR RIMROCK07-27-2015INFLOW (KAF)546485
104PDTO3UMATILLA-AT PENDLETON07-27-2015DISCHARGE (KAF)141599
105GIBO3UMATILLA-NEAR GIBBON07-27-2015DISCHARGE (KAF)131398
106UMAO3UMATILLA-NEAR UMATILLA07-27-2015DISCHARGE (KAF)3114219
107TCHW1WALLA WALLA-NEAR TOUCHET07-27-2015DISCHARGE (KAF)61348
108WSRI1WEISER-NEAR WEISER07-27-2015DISCHARGE (KAF)435087
109PESW1WENATCHEE-AT PESHASTIN07-27-2015DISCHARGE (KAF)12827347
110UNDW1WHITE SALMON-NEAR UNDERWOOD07-27-2015DISCHARGE (KAF)12615780
111RIDI1WILLOW CREEK-RIRIE DAM07-27-2015INFLOW (KAF)4674
112EASW1YAKIMA-AT EASTON07-27-2015DISCHARGE (KAF)10469150
113KIOW1YAKIMA-AT KIONA07-27-2015DISCHARGE (KAF)540474114
114UMTW1YAKIMA-AT UMTANUM07-27-2015DISCHARGE (KAF)39649680
115KEDW1YAKIMA-KEECHELUS LAKE07-27-2015INFLOW (KAF)3629123
116PARW1YAKIMA-NEAR PARKER07-27-2015DISCHARGE (KAF)251177142